Kamez, Albania

4:21 PM CEST on April 29, 2017 (GMT +0200)
Kamez

Weather History for 13615 - December, 2013

Change the Weather History Date:

Wednesday, December 25, 2013

  Actual Average Record
Temperature  
Mean Temperature 50 °F -  
Max Temperature 58 °F 52 °F - ()
Min Temperature 41 °F 35 °F - ()
Degree Days  
Heating Degree Days 16    
Moisture  
Dew Point 39 °F    
Average Humidity 66    
Maximum Humidity 82    
Minimum Humidity 32    
Precipitation  
Precipitation 0.00 in -13.12 in - ()
Sea Level Pressure  
Sea Level Pressure 30.08 in    
Wind  
Wind Speed 3 mph ()    
Max Wind Speed 7 mph    
Max Gust Speed -    
Visibility 4.8 miles    
Events Rain    
T = Trace of Precipitation, MM = Missing Value Source: Averaged Metar Reports

Daily Weather History Graph

Daily Weather History Graph

Search for Another Location

Airport or City:

Trip Planner

Search our weather history database for the weather conditions in past years. The results will help you decide how hot, cold, wet, or windy it might be!

Date:

Astronomy

Dec. 25, 2013 Rise Set
Actual Time 7:05 AM CET 4:16 PM CET
Civil Twilight 6:34 AM CET 4:48 PM CET
Nautical Twilight 5:59 AM CET 5:23 PM CET
Astronomical Twilight 5:25 AM CET 5:56 PM CET
Moon No Moon Rise 11:15 AM CET (12/25)
Length of Visible Light 10h 14m
Length of Day
9h 11m
Waning Gibbous, 51% of the Moon is Illuminated
Dec 25
Waning Gibbous
Dec 25
Last Quarter
Jan 1
New
Jan 8
First Quarter
Jan 16
Full

Hourly Weather History & Observations

Time (CET) Temp. Windchill Dew Point Humidity Pressure Visibility Wind Dir Wind Speed Gust Speed Precip Events Conditions
12:00 AM 42 °F - 37 °F 75% 30.19 in 1 mi South 2.2 mph - -   Overcast
12:20 AM 42.8 °F - 37.4 °F 81% 30.18 in 2.5 mi South 2.3 mph - N/A   Mostly Cloudy
12:50 AM 42.8 °F 41.1 °F 37.4 °F 81% 30.15 in 2.5 mi South 3.5 mph - N/A   Mostly Cloudy
1:20 AM 42.8 °F 41.1 °F 37.4 °F 81% 30.15 in 5.0 mi South 3.5 mph - N/A   Mostly Cloudy
1:50 AM 44.6 °F - 37.4 °F 76% 30.15 in 5.0 mi South 2.3 mph - N/A   Mostly Cloudy
2:00 AM 43 °F - 36 °F 69% 30.17 in 3 mi SE 2.2 mph - -   Overcast
2:20 AM 42.8 °F - 37.4 °F 81% 30.15 in 5.0 mi Calm Calm - N/A   Mostly Cloudy
2:50 AM 44.6 °F 43.1 °F 37.4 °F 76% 30.15 in 5.0 mi SE 3.5 mph - N/A   Mostly Cloudy
3:00 AM 44 °F - 36 °F 64% 30.16 in 4 mi SE 2.2 mph - -   Scattered Clouds
3:20 AM 44.6 °F - 35.6 °F 71% 30.12 in 6.2 mi Calm Calm - N/A   Mostly Cloudy
3:50 AM 42.8 °F - 35.6 °F 76% 30.12 in 6.2 mi Variable 2.3 mph - N/A   Mostly Cloudy
4:00 AM 44 °F - 35 °F 61% 30.14 in 7 mi ESE 4.5 mph - -   Overcast
4:20 AM 42.8 °F - 35.6 °F 76% 30.12 in 6.2 mi ESE 2.3 mph - N/A   Mostly Cloudy
4:50 AM 42.8 °F - 35.6 °F 76% 30.12 in 6.2 mi WSW 2.3 mph - N/A   Mostly Cloudy
5:20 AM 42.8 °F - 37.4 °F 81% 30.12 in 6.2 mi Calm Calm - N/A   Mostly Cloudy
5:50 AM 42.8 °F 41.1 °F 35.6 °F 76% 30.12 in 6.2 mi ENE 3.5 mph - N/A   Mostly Cloudy
6:00 AM 43 °F - 37 °F 71% 30.15 in 5 mi ENE 2.2 mph - -   Mostly Cloudy
6:20 AM 42.8 °F - 35.6 °F 76% 30.12 in 6.2 mi Calm Calm - N/A   Mostly Cloudy
6:50 AM 42.8 °F - 35.6 °F 76% 30.12 in 6.2 mi Variable 2.3 mph - N/A   Mostly Cloudy
7:00 AM 42 °F - 36 °F 73% 30.15 in 7 mi South 2.2 mph - -   Partly Cloudy
7:20 AM 42.8 °F 39.3 °F 35.6 °F 76% 30.12 in 5.6 mi SE 5.8 mph - N/A   Mostly Cloudy
7:50 AM 42.8 °F - 35.6 °F 76% 30.12 in 6.2 mi South 2.3 mph - N/A   Mostly Cloudy
8:00 AM 42 °F - 37 °F 75% 30.14 in 6 mi SSE 4.5 mph - -   Mostly Cloudy
8:20 AM 42.8 °F 41.1 °F 37.4 °F 81% 30.12 in 6.2 mi SSE 3.5 mph - N/A   Mostly Cloudy
8:50 AM 44.6 °F 42.2 °F 35.6 °F 71% 30.12 in 5.0 mi South 4.6 mph - N/A   Mostly Cloudy
9:20 AM 48.2 °F - 37.4 °F 66% 30.12 in 6.2 mi Variable 2.3 mph - N/A   Mostly Cloudy
9:50 AM 50.0 °F - 37.4 °F 62% 30.12 in 4.3 mi SE 3.5 mph - N/A   Mostly Cloudy
10:00 AM 50 °F - 37 °F 50% 30.14 in 3 mi SE 2.2 mph - -   Mostly Cloudy
10:20 AM 51.8 °F - 37.4 °F 58% 30.12 in 3.1 mi SSE 2.3 mph - N/A   Haze
10:50 AM 51.8 °F - 37.4 °F 58% 30.12 in 4.3 mi SSW 2.3 mph - N/A   Mostly Cloudy
11:00 AM 53 °F - 37 °F 43% 30.12 in 6 mi South 2.2 mph - -   Overcast
11:20 AM 53.6 °F - 35.6 °F 51% 30.09 in 5.0 mi Variable 2.3 mph - N/A   Mostly Cloudy
11:50 AM 55.4 °F - 37.4 °F 51% 30.09 in 5.0 mi Calm Calm - N/A   Mostly Cloudy
12:00 PM 56 °F - 38 °F 38% 30.10 in 4 mi 2.2 mph - -   Mostly Cloudy
12:20 PM 57.2 °F - 37.4 °F 48% 30.09 in 4.3 mi Variable 2.3 mph - N/A   Mostly Cloudy
12:50 PM 57.2 °F - 37.4 °F 48% 30.06 in 5.0 mi South 4.6 mph - N/A   Mostly Cloudy
1:00 PM 58 °F - 36 °F 32% 30.08 in 11 mi SE 4.5 mph - -   Scattered Clouds
1:20 PM 59.0 °F - 37.4 °F 45% 30.06 in 6.2 mi SSE 4.6 mph - N/A   Mostly Cloudy
1:50 PM 59.0 °F - 37.4 °F 45% 30.06 in 6.2 mi SSE 5.8 mph - N/A   Mostly Cloudy
2:00 PM 58 °F - 37 °F 34% 30.07 in 11 mi SE 4.5 mph - -   Partly Cloudy
2:20 PM 59.0 °F - 37.4 °F 45% 30.04 in 6.2 mi SE 5.8 mph - N/A   Mostly Cloudy
2:50 PM 59.0 °F - 39.2 °F 48% 30.04 in 6.2 mi SSE 3.5 mph - N/A   Mostly Cloudy
3:00 PM 58 °F - 39 °F 37% 30.06 in 6 mi SSE 4.5 mph - -   Partly Cloudy
3:20 PM 57.2 °F - 39.2 °F 51% 30.04 in 6.2 mi South 3.5 mph - N/A   Mostly Cloudy
3:50 PM 57.2 °F - 41.0 °F 55% 30.04 in 6.2 mi Variable 2.3 mph - N/A   Overcast
4:00 PM 56 °F - 39 °F 42% 30.05 in 4 mi ENE 2.2 mph - -   Mostly Cloudy
4:20 PM 57.2 °F - 39.2 °F 51% 30.04 in 3.7 mi ENE 3.5 mph - N/A   Mostly Cloudy
4:50 PM 55.4 °F - 41.0 °F 58% 30.04 in - East 3.5 mph - N/A   Smoke
5:00 PM 53 °F - 41 °F 53% 30.06 in 3 mi West 2.2 mph - -   Overcast
5:20 PM 53.6 °F - 41.0 °F 62% 30.04 in 3.1 mi Calm Calm - N/A   Smoke
5:50 PM 51.8 °F - 42.8 °F 71% 30.04 in - Variable 2.3 mph - N/A Rain Light Rain
6:00 PM 53 °F - 42 °F 55% 30.06 in 2 mi East 2.2 mph - -   Scattered Clouds
6:20 PM 51.8 °F - 42.8 °F 71% 30.04 in - Variable 2.3 mph - N/A Rain Light Rain
6:50 PM 50.0 °F - 44.6 °F 82% 30.04 in - Variable 2.3 mph - N/A   Smoke
7:00 PM 51 °F - 43 °F 67% 30.05 in 2 mi NW 2.2 mph - -   Partly Cloudy
7:20 PM 51.8 °F - 42.8 °F 71% 30.04 in 1.9 mi WSW 3.5 mph - N/A   Smoke
7:50 PM 50.0 °F - 44.6 °F 82% 30.04 in - South 4.6 mph - N/A   Smoke
8:00 PM 50 °F - 44 °F 72% 30.04 in 2 mi South 4.5 mph - -   Overcast
8:20 PM 50.0 °F - 44.6 °F 82% 30.01 in - South 5.8 mph - N/A   Smoke
8:50 PM 50.0 °F - 44.6 °F 82% 30.01 in 1.5 mi SSE 4.6 mph - N/A   Smoke
9:00 PM 51 °F - 45 °F 72% 30.02 in 2 mi SE 6.7 mph - -   Mostly Cloudy
9:20 PM 51.8 °F - 44.6 °F 76% 30.01 in 2.5 mi SSE 5.8 mph - N/A   Smoke
9:50 PM 50.0 °F - 44.6 °F 82% 30.01 in 2.5 mi SSE 5.8 mph - N/A Rain Light Rain
10:00 PM 50 °F - 45 °F 78% 30.01 in 2 mi South 4.5 mph - -   Overcast
10:20 PM 50.0 °F - 44.6 °F 82% 30.01 in 2.5 mi ESE 3.5 mph - N/A   Overcast
10:50 PM 50.0 °F - 44.6 °F 82% 30.01 in 4.3 mi SSE 3.5 mph - N/A   Overcast
11:00 PM 50 °F - 44 °F 71% 30.00 in 4 mi South 4.5 mph - -   Mostly Cloudy
11:20 PM 50.0 °F - 42.8 °F 76% 29.98 in 6.2 mi South 4.6 mph - N/A   Overcast
11:50 PM 50.0 °F - 44.6 °F 82% 29.98 in 6.2 mi South 4.6 mph - N/A   Overcast